Weather History for New Iberia, LA

Change the Weather History Date:

Thursday, August 21, 2014

  Actual Average Record
Temperature  
Mean Temperature 85 °F 83 °F  
Max Temperature 94 °F 92 °F 98 °F (1948)
Min Temperature 75 °F 74 °F 65 °F (1957)
Degree Days  
Heating Degree Days 0 0  
Month to date heating degree days 0 0  
Since 1 June heating degree days 0 0  
Since 1 July heating degree days 0 0  
Cooling Degree Days 20 18  
Month to date cooling degree days 387 378  
Year to date cooling degree days 1916 1966  
Since 1 June cooling degree days 1430 1396  
Growing Degree Days 33 (Base 50)    
Moisture  
Dew Point 75 °F    
Average Humidity 79    
Maximum Humidity 94    
Minimum Humidity 64    
Precipitation  
Precipitation 0.13 in 0.17 in 1.12 in (1962)
Month to date precipitation 2.09 3.29  
Year to date precipitation 35.44 39.06  
Sea Level Pressure  
Sea Level Pressure 30.11 in    
Wind  
Wind Speed 4 mph (SE)    
Max Wind Speed 20 mph    
Max Gust Speed 28 mph    
Visibility 10 miles    
Events Rain , Thunderstorm    
T = Trace of Precipitation, MM = Missing Value Source: NWS Daily Summary

Daily Weather History Graph

Daily Weather History Graph

Search for Another Location

Airport:

Trip Planner

Search our weather history database for the weather conditions in past years. The results will help you decide how hot, cold, wet, or windy it might be!

Date:

Astronomy

Aug. 21, 2014 Rise Set
Actual Time 6:38 AM CDT 7:42 PM CDT
Civil Twilight 6:13 AM CDT 8:07 PM CDT
Nautical Twilight 5:44 AM CDT 8:36 PM CDT
Astronomical Twilight 5:13 AM CDT 9:06 PM CDT
Moon 3:16 AM CDT (8/21) 5:05 PM CDT (8/21)
Length of Visible Light 13h 53m
Length of Day
13h 04m
Waning Crescent, 13% of the Moon is Illuminated
Aug 21
Waning Crescent
Aug 25
New
Sep 2
First Quarter
Sep 8
Full
Sep 15
Last Quarter

Hourly Weather History & Observations

Time (CDT) Temp. Heat Index Dew Point Humidity Pressure Visibility Wind Dir Wind Speed Gust Speed Precip Events Conditions
12:53 AM 77.0 °F - 73.9 °F 90% 30.07 in 10.0 mi SSW 4.6 mph - N/A   Clear
1:53 AM 78.1 °F - 73.9 °F 87% 30.07 in 10.0 mi East 4.6 mph - N/A   Clear
2:53 AM 77.0 °F - 73.0 °F 88% 30.07 in 10.0 mi Calm Calm - N/A   Clear
3:53 AM 75.9 °F - 73.0 °F 91% 30.08 in 10.0 mi ESE 3.5 mph - N/A   Clear
4:53 AM 75.9 °F - 73.0 °F 91% 30.08 in 10.0 mi SE 3.5 mph - N/A   Clear
5:53 AM 75.9 °F - 73.0 °F 91% 30.09 in 10.0 mi SE 4.6 mph - N/A   Clear
6:53 AM 77.0 °F - 75.0 °F 94% 30.11 in 9.0 mi ESE 3.5 mph - N/A   Clear
7:53 AM 81.0 °F 87.3 °F 75.9 °F 85% 30.12 in 10.0 mi East 4.6 mph - N/A   Partly Cloudy
8:53 AM 84.9 °F 96.6 °F 78.1 °F 80% 30.13 in 10.0 mi SSE 4.6 mph - N/A   Clear
9:53 AM 89.1 °F 104.4 °F 79.0 °F 72% 30.13 in 10.0 mi South 5.8 mph - N/A   Clear
10:32 AM 90.0 °F 104.5 °F 78.1 °F 68% 30.13 in 10.0 mi SSW 4.6 mph - N/A   Mostly Cloudy
10:51 AM 91.4 °F 105.1 °F 77.0 °F 63% 30.13 in 10.0 mi South 5.8 mph - N/A   Scattered Clouds
10:53 AM 91.0 °F 104.2 °F 77.0 °F 63% 30.13 in 10.0 mi South 9.2 mph - N/A   Scattered Clouds
11:49 AM 91.4 °F 105.1 °F 77.0 °F 63% 30.13 in 10.0 mi SSW 8.1 mph - N/A   Mostly Cloudy
11:53 AM 91.0 °F 104.2 °F 77.0 °F 63% 30.12 in 10.0 mi SSW 6.9 mph - N/A   Mostly Cloudy
12:16 PM 91.9 °F 105.9 °F 77.0 °F 62% 30.11 in 10.0 mi Variable 4.6 mph - N/A Thunderstorm Thunderstorm
12:53 PM 89.1 °F 99.1 °F 75.0 °F 63% 30.11 in 10.0 mi Calm Calm - N/A Thunderstorm Thunderstorm
1:53 PM 77.0 °F - 72.0 °F 84% 30.13 in 5.0 mi South 8.1 mph - 0.12 in Rain , Thunderstorm Thunderstorms and Rain
2:08 PM 77.0 °F - 72.0 °F 84% 30.13 in 9.0 mi Calm Calm - 0.01 in Rain , Thunderstorm Light Rain
2:24 PM 77.0 °F - 72.0 °F 84% 30.14 in 10.0 mi South 4.6 mph - 0.01 in   Partly Cloudy
2:53 PM 78.1 °F - 73.9 °F 87% 30.13 in 10.0 mi East 3.5 mph - 0.01 in   Clear
3:22 PM 78.1 °F - 75.0 °F 90% 30.12 in 10.0 mi Calm Calm - N/A Thunderstorm Clear
3:37 PM 78.1 °F - 73.9 °F 87% 30.13 in 10.0 mi North 5.8 mph - 0.00 in Rain Light Rain
3:53 PM 78.1 °F - 73.9 °F 87% 30.12 in 10.0 mi North 4.6 mph - 0.00 in Rain Light Rain
4:53 PM 79.0 °F - 75.0 °F 88% 30.11 in 10.0 mi East 5.8 mph - 0.00 in   Scattered Clouds
5:53 PM 80.1 °F 85.1 °F 75.0 °F 85% 30.11 in 10.0 mi NNE 3.5 mph - N/A   Clear
6:53 PM 80.1 °F 85.4 °F 75.9 °F 87% 30.11 in 10.0 mi Calm Calm - N/A   Clear
7:53 PM 79.0 °F - 75.9 °F 90% 30.11 in 10.0 mi ENE 3.5 mph - N/A   Clear
8:53 PM 77.0 °F - 75.0 °F 94% 30.12 in 10.0 mi East 4.6 mph - N/A   Clear
10:53 PM 75.9 °F - 73.9 °F 94% 30.11 in 10.0 mi South 4.6 mph - N/A   Clear
11:53 PM 75.9 °F - 73.9 °F 94% 30.11 in 10.0 mi Calm Calm - N/A   Clear